www.pogodaiklimat.ru

Погода и климат >> Архив погоды >> Россия >> Краснодарский край >> Краснодар


АРХИВ ПОГОДЫ в Краснодаре

Время (UTC), дата Ветер
(напр.,м/с)
 
Видим.   Явления Облачность Т
(С)
Тd
(С)
f
(%)
Тe
(С)
Тes
(С)
Комфортность P
(гПа)
Po
(гПа)
Тmin
(С)
Tmax
(С)
R
(мм)
R24
(мм)
S
(см)
09 11.02 ЮВ 3 10 км 8/8 1000 м
[Sc diur, vesp]
+7.4 +4.9 84 +5 +6 тепло 1021.6 1017.3
12 11.02 ЮВ 2 10 км 9/9 1000 м
[Sc diur, vesp]
+10.1 +3.5 64 +9 +9 тепло 1020.1 1015.9
15 11.02 В 3 10 км 9/9 1000 м
[Sc diur, vesp]
+8.0 +4.2 77 +5 +5 тепло 1019.9 1015.6 +10.6
18 11.02 В 3 10 км 10/10 1000 м
[Sc diur, vesp]
+6.2 +3.7 84 +3 +3 тепло 1019.7 1015.4
21 11.02 СВ 2 10 км 6/6 1500 м
[Sc diur, vesp]
+3.9 +2.6 91 +1 +1 по сезону 1018.9 1014.6
00 12.02 СВ 2 10 км 3/0
[Ac trans]
+1.4 +0.6 94 -2 -2 по сезону 1018.1 1013.7
03 12.02 СВ 2 4000 м дымка 3/0
[Ac trans]
+0.7 0.0 95 -3 -3 по сезону 1018.0 1013.6 +0.3
06 12.02 В 2 10 км 4/0
[Ac As]
+2.0 +1.0 93 -1 -0 по сезону 1017.7 1013.3 +0.1
09 12.02 В 3 10 км 6/0
[Ac trans Ci fib]
+8.0 +4.1 76 +5 +9 тепло 1016.8 1012.5
12 12.02 В 4 10 км 8/0
[Ac trans Ci fib]
+11.9 +2.6 53 +10 +12 тепло 1015.3 1011.1
15 12.02 В 4 10 км 8/0
[Ac trans]
+9.6 +3.2 64 +7 +7 тепло 1015.7 1011.5 +12.6
18 12.02 В 2 10 км 3/0
[Ac trans]
+5.9 +3.0 82 +4 +4 тепло 1016.9 1012.6
21 12.02 В 2 10 км ясно +3.4 +1.9 90 0 0 по сезону 1016.9 1012.6
00 13.02 В 2 10 км ясно +2.4 +1.0 90 -1 -1 по сезону 1017.4 1013.0
03 13.02 СВ 1 10 км ясно +2.2 +0.9 91 0 0 по сезону 1018.2 1013.8 +1.4
06 13.02 СВ 2 10 км 8/1 1000 м
[Sc Ac trans Ci]
+1.9 +0.2 88 -1 -1 по сезону 1020.1 1015.7 +0.6
09 13.02 З 6 10 км 9/0
[Ac trans Ci fib]
+11.6 +4.6 62 +9 +11 тепло 1021.1 1016.9
12 13.02 З 4 10 км 8/3 1000 м
[Sc Ac cast Cc]
+10.7 +4.0 63 +8 +9 тепло 1021.9 1017.7
15 13.02 З 4 10 км 10/6 600 м
[Sc Ac trans Ci fib]
+6.3 +2.3 76 +3 +3 по сезону 1023.3 1019.0 +12.5
18 13.02 З 5 10 км 10/10 600 м
[Sc]
+4.2 +0.6 77 -1 -1 по сезону 1024.8 1020.4
21 13.02 З 3 10 км 10/10 1000 м
[Cb cap]
+3.2 +0.3 81 -1 -1 по сезону 1025.7 1021.3
00 14.02 СЗ 2 10 км 10/10 1000 м
[Sc]
+2.5 -0.3 82 -1 -1 по сезону 1025.7 1021.3
03 14.02 С 3 10 км 10/10 1000 м
[Sc]
+2.1 -0.5 83 -2 -2 по сезону 1025.5 1021.1 +2.1
06 14.02 С 3 10 км 10/10 1000 м
[Sc]
+2.4 -0.9 79 -2 -2 по сезону 1026.2 1021.8 +2.0
09 14.02 СВ 5 10 км 10/10 1000 м
[Sc]
+4.1 -1.7 66 -1 -1 по сезону 1025.5 1021.1
12 14.02 СВ 5 10 км 10/10 1000 м
[Sc]
+4.6 -1.2 66 0 0 по сезону 1023.8 1019.5
15 14.02 СВ 5 10 км 10/10 1000 м
[Sc]
+4.1 -1.7 66 -1 -1 по сезону 1023.2 1018.8 +4.8
18 14.02 СВ 6 10 км 10/10 1000 м
[Sc]
+3.2 -2.7 65 -2 -2 по сезону 1023.2 1018.8
21 14.02 СВ 5 10 км 10/10 1000 м
[Sc]
+1.6 -3.5 69 -4 -4 по сезону 1022.7 1018.3
00 15.02 СВ 6 10 км 10/10 1000 м
[Sc]
+0.6 -4.6 68 -6 -6 по сезону 1023.1 1018.7
03 15.02 СВ 5 10 км 10/10 1000 м
[Sc]
+0.2 -4.2 72 -6 -6 по сезону 1023.3 1018.9 +0.2
06 15.02 СВ 6 10 км 10/10 600 м
[Sc diur, vesp]
+0.4 -3.7 74 -6 -6 по сезону 1024.6 1020.2 -0.3
09 15.02 СВ 6
{12}
10 км 8/3 600 м
[Sc diur, vesp Ac trans Ci fib]
+3.0 -2.1 69 -2 -1 по сезону 1024.2 1019.8
12 15.02 СВ 6 10 км 8/8 1000 м
[Sc diur, vesp]
+5.9 -1.0 61 +2 +2 по сезону 1023.3 1019.0
15 15.02 СВ 5 10 км 10/10 1000 м
[Sc diur, vesp]
+4.7 -2.1 61 0 0 по сезону 1023.4 1019.1 +6.5
18 15.02 С 2 10 км 8/8 1000 м
[Sc diur, vesp]
+2.5 -2.7 69 -0 -0 по сезону 1023.6 1019.2
21 15.02 С 3 10 км 3/3 1500 м
[Sc diur, vesp]
-0.9 -5.4 71 -5 -5 по сезону 1022.7 1018.3
00 16.02 СЗ 2 10 км 3/3 1500 м
[Sc diur, vesp]
-2.7 -6.7 74 -7 -7 прохладно 1022.7 1018.2
03 16.02 З 1 10 км 3/3 1500 м
[Sc diur, vesp]
-4.5 -8.0 77 -7 -7 прохладно 1022.7 1018.2 -4.6
06 16.02 З 1 10 км 6/4 1000 м
[Sc Ac As]
-1.8 -5.9 74 -4 -3 по сезону 1023.6 1019.1 -4.9
09 16.02 З 5 10 км 10/10 1000 м
[Sc]
+2.1 -4.1 64 -3 -3 по сезону 1023.6 1019.2
12 16.02 З 5 10 км 10/10 1000 м
[Sc]
+2.8 -2.3 69 -2 -2 прохладно 1022.4 1018.0
15 16.02 З 5 10 км 10/10 1000 м
[Sc]
+2.5 -1.4 75 -3 -3 прохладно 1022.6 1018.2 +3.6
18 16.02 З 5 10 км 10/10 300 м
[St]
+2.1 -0.2 85 -3 -3 по сезону 1023.1 1018.7
21 16.02 З 5 10 км 10/10 300 м
[St]
+2.3 -0.2 84 -3 -3 по сезону 1023.3 1018.9
00 17.02 ЮЗ 5 4000 м слаб. морось 10/10 300 м
[St]
+2.2 +0.9 91 -3 -3 по сезону 1022.7 1018.3
03 17.02 ЮЗ 5 4000 м слаб. морось 10/10 200 м
[St]
+2.4 +1.2 92 -3 -3 по сезону 1022.3 1017.9 +1.9 0.5
06 17.02 ЮЗ 5 4000 м слаб. морось 10/10 300 м
[St]
+2.7 +1.6 92 -3 -3 по сезону 1022.8 1018.4
09 17.02 З 5 4000 м слаб. морось 10/10 300 м
[St]
+4.5 +3.0 90 -0 -0 по сезону 1022.0 1017.7
12 17.02 ЮЗ 9-13
{13}
10 км {морось} 9/8 600 м
[Sc Ac cast]
+9.4 +2.3 61 +5 +5 по сезону 1019.1 1014.8
15 17.02 ЮЗ 9-14
{16}
10 км 8/0
[Ac cast Ci sp]
+7.2 +2.1 70 +2 +2 по сезону 1017.8 1013.5 +9.7 0.2
18 17.02 ЮЗ 9-12
{15}
10 км 9/0
[Ac cast]
+7.3 +3.0 74 +2 +2 по сезону 1016.5 1012.2
21 17.02 ЮЗ 10-16
{16}
10 км 8/0
[Ac cast]
+7.4 +2.2 70 +2 +2 тепло 1015.7 1011.4
00 18.02 ЮЗ 10-15
{18}
10 км 10/6 1000 м
[Sc Ac und]
+7.6 +2.7 71 +2 +2 тепло 1014.6 1010.3
03 18.02 ЮЗ 9-12
{15}
10 км 10/9 1000 м
[Sc Ac und]
+7.8 +2.9 71 +3 +3 тепло 1013.2 1008.9 +7.0
06 18.02 З 6-10
{13}
10 км 10/10 600 м
[Sc]
+5.7 +1.2 73 +1 +1 по сезону 1015.6 1011.3 +5.6

 

Местоположение метеостанции Краснодар (Краснодарский край, Россия): широта 45.05 долгота 39.03 высота над уровнем моря 29 м.

В архиве по умолчанию представлена погода в Краснодаре за последнюю неделю. Архивные данные за месяц целиком и за предыдущие месяцы, начиная с января 2011 года, Вы можете получить, выбрав интересующий диапазон дат из раскрывающегося списка и нажав кнопку "Ввод!".


*Определитесь, кто Вы:
робот инопланетянин человек

Внимание! Время в таблицах - всемирное. Для получения местного времени необходимо прибавить поправку, которая равна 3 ч.

Смотрите также архив погоды в соседних городах и на ближайших метеорологических станциях:

Погода в Горячем Ключе (Краснодарский край, Россия) (47 км)
Погода в Усть-Лабинске (Краснодарский край, Россия) (58 км)
Погода в Кореновске (Краснодарский край, Россия) (59 км)
Погода в Тимашевске (Краснодарский край, Россия) (65 км)
Погода в Славянске-на-Кубани (Краснодарский край, Россия) (76 км)
Погода в Белореченске (Краснодарский край, Россия) (76 км)
Погода в Крымске (Краснодарский край, Россия) (82 км)
Погода в Джубге (Краснодарский край, Россия) (84 км)
Погода в Горном (Краснодарский край, Россия) (88 км)
Погода в Геленджике (Краснодарский край, Россия) (92 км)

Пояснения к столбцам:

Ветер - указаны скорость ветра в м/с - средняя за 10 мин, порывы в срок и между сроками (в фигурных скобках) и направление, откуда дует ветер: С - северный, СВ - северо-восточный, В - восточный, ЮВ - юго-восточный, Ю - южный, ЮЗ - юго-западный, З - западный, СЗ - северо-западный.
Видимость - горизонтальная дальность видимости в метрах или километрах. При видимости от 1 до 10 км при отсутствии осадков обычно наблюдается дымка, при ухудшении видимости до 1 км и менее - туман. В сухую погоду видимость может ухудшаться дымом, пылью или мглою.
Явления - указаны атмосферные явления, наблюдавшиеся в срок или в последний час перед сроком; фигурными скобками обозначены явления, наблюдавшиеся между сроками (за 1-3 часа до срока); квадратными скобками обозначены град или гололедные отложения с указанием их диаметра в мм.
Облачность - указаны через наклонную черту общая и нижняя облачность в баллах и высота нижней границы облаков в метрах; квадратными скобками обозначены формы облаков: Ci - перистые, Cs - перисто-слоистые, Cc - перисто-кучевые, Ac - высококучевые, As - высокослоистые, Sc - слоисто-кучевые, Ns - слоисто-дождевые, Cu - кучевые, Cb - кучево-дождевые. Подробнее классификацию облаков см. в Атласе облаков (PDF).
T - Температура воздуха - температура, измеренная на высоте 2 м над землей.
Td - Температура точки росы - температура, при понижении до которой содержащийся в воздухе водяной пар достигнет насыщения.
f - Относительная влажность воздуха - влажноcть воздуха, измеренная на высоте 2 м над землей.
Te - Эффективная температура - температура, которую ощущает одетый по сезону человек в тени. Характеристика душности погоды. При расчете учитывается влияние влажности воздуха и скорости ветра на теплоощущения человека.
Tes - Эффективная температура на солнце - температура, которую ощущает человек, с поправкой на солнечный нагрев. Характеристика знойности погоды. Зависит от высоты солнца над горизонтом, облачности и скорости ветра. Ночью, в пасмурную погоду, а также при ветре 12 м/с и более поправка равна нулю.
P - Атмосферное давление - приведенное к уровню моря атмосферное давление.
Po - Атмосферное давление - измеренное на уровне метеостанции атмосферное давление.
Tmin - Минимальная температура - минимум температуры воздуха на высоте 2 м над землей.
Tmax - Максимальная температура - максимум температуры воздуха на высоте 2 м над землей.
R - Количество осадков - Количество выпавших осадков за период времени, мм. При наведении курсора мыши на число - период времени, за который выпало указанное количество осадков.
R24 - Количество осадков - Количество выпавших осадков за 24 часа, мм.
S - Снежный покров - Высота снежного покрова, см. При наведении курсора мыши на число - состояние снежного покрова и степень покрытия местности в баллах.